Flag for Czech Republic Weather past 2 weeks in Plzen, Czech Republic

Now
52 °F

Passing clouds.


Feels Like: N/A
Forecast: 31 / 58 °F
Wind: N/A

Location: Kocelovice

Current Time: Apr 19, 2015 at 4:33:07 PM

Latest Report: Apr 19, 2015 at 3:00 PM


Visibility: 44 mi

Pressure: 30.14 "Hg

Humidity: 36%

Dew point: 26 °F

Location of PlzenLocation

Historic Weather in Plzen — Graph

°F

Plzen temperature yesterday

Maximum temperature yesterday: 44 °F (at 3:00 PM)
Minimum temperature yesterday: 33 °F (at 6:00 AM)
Average temperature yesterday: 39 °F

Past Weeks' High & Low Weather Summary

 TemperatureHumidityPressure
High70 °F (Apr 15, 4:00 PM)97% (Apr 6, 5:00 PM)30.63 "Hg (Apr 6, 5:00 PM)
Low27 °F (Apr 7, 7:00 AM)26% (Apr 15, 5:00 PM)29.83 "Hg (Apr 16, 7:00 PM)
Average46 °F63%30.24 "Hg
* Reported Apr 4 3:00 PM — Apr 19 3:00 PM, Plzen, Weather by CustomWeather, © 2015

Note: Actual official high and low records may vary slightly from our data, if they occured in-between our weather recording intervals... More about our weather records

Advertising

Plzen weather history for previous 24 hours

 ConditionsComfort  
Time TempWeatherWind HumidityBarometerVisibility
3:00 PM
Sun, Apr 19
52 °FPassing clouds.N/A36%30.14 "Hg43 mi
2:00 PM51 °FPassing clouds.N/A35%30.15 "Hg43 mi
1:00 PM50 °FPassing clouds.N/A40%30.17 "Hg43 mi
12:00 PM48 °FPassing clouds.N/A40%30.19 "Hg43 mi
11:00 AM47 °FPassing clouds.N/A48%30.20 "Hg43 mi
10:00 AM44 °FPassing clouds.N/A49%30.22 "Hg47 mi
9:00 AM41 °FPassing clouds.N/A59%30.23 "Hg47 mi
8:00 AM35 °FPassing clouds.1 mph70%30.25 "Hg47 mi
7:00 AM32 °FChilly.2 mph73%30.26 "Hg12 mi
6:00 AM31 °FChilly.2 mph80%30.26 "Hg12 mi
5:00 AM31 °FPassing clouds.32 mph82%30.27 "Hg1 mi
4:00 AM30 °FChilly.N/A83%30.27 "Hg12 mi
3:00 AM31 °FChilly.N/A79%30.28 "Hg12 mi
2:00 AM32 °FChilly.2 mph74%30.29 "Hg12 mi
1:00 AM33 °FChilly.2 mph72%30.30 "Hg12 mi
12:00 AM34 °FChilly.2 mph73%30.29 "Hg12 mi
11:00 PM
Sat, Apr 18
36 °FChilly.2 mph71%30.29 "Hg12 mi
10:00 PM38 °FPassing clouds.1 mph65%30.27 "Hg37 mi
9:00 PM40 °FPassing clouds.2 mph50%30.27 "Hg43 mi
8:00 PM41 °FPartly sunny.2 mph49%30.25 "Hg47 mi
7:00 PM42 °FPartly sunny.3 mph49%30.25 "Hg47 mi
6:00 PM43 °FPartly sunny.5 mph40%30.24 "Hg43 mi
5:00 PM44 °FPartly sunny.5 mph44%30.24 "Hg37 mi
4:00 PM43 °FPartly sunny.5 mph45%30.25 "Hg34 mi
Weather by CustomWeather, © 2015

See weather overviewHow to use our weather pages